Reflectivity
-20 -20 -20 -20 -20 -20 -20 -20 -20 -20 -20 -20 -20 -20 -20 -20 -20 -20 -20 -20 -20 -20
-20 -20 -20 -20 -20 -20 -20 -20 -20 -20 -20 -20 -20 -20 -20 -20 -20 -20 -20 -20 -20 -20
-20 -20 -20 -20 -20 -20 -20 -20 -20 -20 -20 -20 -20 -20 -20 -20 -20 -20 -20 -20 -20 -20
-20 -20 -20 -20 -20 -20 -20 -20 -20 -20 -20 -20 -20 -20 -20 -20 -20 -20 -20 -20 -20 -20
-20 -20 -20 -20 -20 -20 -20 -20 -20 -20 -20 -20 -20 -20 -20 -20 -20 -20 -20 -20 -20 -20
-20 -20 -20 -20 -20 -20 -20 -20 -20 -20 -20 -20 -20 -20 -20 -20 -20 -20 -20 -0 -16 -20
-20 -20 -20 -20 -20 -20 -20 -20 -20 -20 -20 -20 -20 -20 -20 -20 -20 -20 -19 8 8 12
-20 -20 -20 -20 -20 -20 -20 -20 -20 -20 -20 -20 -20 -20 -20 -20 -20 -20 -20 -20 -20 -20
-20 -20 -20 -20 -20 -20 -20 -20 -20 -20 -20 -20 -20 -20 -20 -20 -20 -20 -20 -20 -20 -20
-20 -20 -20 -20 -20 -20 -20 -20 -20 -20 -20 -20 -20 -20 -20 -20 -20 -20 -20 -20 6 -7
-20 -20 -20 -20 -20 -20 -20 -20 -20 -20 -20 -20 -20 -20 -20 -20 -20 -9 -7 5 11 9
-20 -20 -20 -20 -20 -20 -20 -20 -20 -20 -20 -20 -20 -20 -20 -9 8 -19 6 -19 -11 15
-20 -20 -20 -20 -20 -20 -20 -20 -20 -20 -20 -3 -20 -20 3 19 6 12 -8 -20 -20 -3
-20 -20 -20 -20 -20 -20 -20 -20 -20 -20 -20 -20 -19 -8 -20 3 11 18 14 12 1 -13
Wind_Speed
10 8 9 10 10 9 9 9 10 9 9 10 10 9 9 8 8 9 8 11 9 8
11 11 11 13 12 10 12 11 12 12 13 12 12 12 11 9 11 10 9 9 10 9
10 11 11 11 13 13 13 14 15 15 14 14 14 13 13 11 12 12 9 10 12 11
10 11 11 11 12 12 14 14 15 15 16 16 15 14 13 13 15 15 14 13 14 15
10 11 11 11 12 13 14 14 15 15 16 16 16 15 15 15 15 16 17 16 16 16
10 11 12 12 13 13 14 14 15 16 16 17 17 17 17 17 17 17 17 17 17 17
10 12 12 13 14 15 15 16 16 16 17 16 18 18 18 18 18 19 18 17 17 19
11 13 13 14 15 15 16 15 17 17 17 17 16 14 17 18 19 19 20 20 21 20
13 14 14 15 15 16 16 17 17 18 17 17 14 19 12 16 18 21 21 20 20 21
14 15 15 16 17 17 17 18 17 18 17 18 18 15 20 15 16 18 18 21 20 19
15 15 16 16 17 17 16 17 17 17 18 17 16 15 17 12 15 18 17 20 22 22
15 16 16 17 17 17 17 17 17 18 18 19 18 19 16 10 18 18 20 18 19 20
15 16 16 17 18 17 17 18 16 19 18 18 19 21 12 9 12 17 16 19 18 21
15 16 17 17 16 18 18 17 17 18 17 19 18 20 19 18 15 13 15 15 13 12
Wind_Direction
311 302 304 301 316 311 310 305 320 302 301 308 310 310 306 302 302 300 302 300 295 301
312 312 310 307 302 300 303 300 305 313 296 290 290 292 293 290 296 291 285 282 281 279
336 334 328 319 314 312 307 305 304 301 296 293 289 286 285 282 279 282 278 274 274 272
347 346 341 337 336 332 328 319 315 311 305 299 295 290 285 279 278 272 270 268 271 272
351 346 341 339 335 335 326 324 319 315 308 304 301 300 298 290 286 280 275 275 275 271
344 340 336 334 331 327 323 320 316 315 314 313 311 305 296 290 287 282 280 274 268 267
335 332 328 328 326 325 324 320 316 316 312 310 307 307 305 312 325 321 308 300 295 281
330 325 326 327 325 322 321 319 320 317 314 314 311 301 341 334 322 315 310 309 306 295
329 327 328 325 321 320 319 321 318 314 314 315 314 328 352 340 322 313 307 302 296 293
326 327 325 324 322 321 322 316 314 311 313 311 305 305 297 289 297 303 300 295 298 297
326 322 322 321 319 320 316 313 311 305 301 302 299 286 283 264 295 300 298 301 306 304
322 321 318 315 318 316 316 317 309 308 312 305 315 314 305 285 307 300 300 299 305 303
318 312 314 316 316 316 315 308 311 310 303 319 313 310 314 320 305 310 310 306 305 303
311 314 315 317 319 319 311 312 308 314 324 316 314 320 329 336 326 321 319 304 299 296